Total_Precipitation_Accumulation
0.15 0.16 0.23 0.34 0.31 0.20 0.08 0.02 0.01 0.01 0.01 0.02 0.03 0.04 0.05 0.05 0.06 0.12 0.08 0.06 0.06 0.09 0.15 0.28 0.41 0.50 0.47 0.43 0.36 0.27 0.22 0.21 0.24 0.28 0.28 0.27 0.24 0.23 0.24 0.26 0.30 0.33 0.34 0.35 0.41 0.41 0.41 0.36 0.29
0.18 0.27 0.44 0.51 0.34 0.21 0.08 0.02 0.01 0.01 0.02 0.02 0.03 0.04 0.04 0.06 0.05 0.07 0.09 0.08 0.09 0.12 0.19 0.28 0.39 0.50 0.52 0.49 0.43 0.37 0.34 0.31 0.31 0.35 0.36 0.37 0.32 0.28 0.27 0.29 0.30 0.30 0.29 0.30 0.32 0.28 0.26 0.18 0.15
0.31 0.45 0.64 0.57 0.38 0.20 0.07 0.02 0.01 0.01 0.02 0.03 0.04 0.04 0.05 0.09 0.08 0.08 0.11 0.13 0.17 0.21 0.25 0.37 0.45 0.51 0.54 0.53 0.51 0.47 0.43 0.42 0.41 0.41 0.42 0.46 0.44 0.37 0.33 0.30 0.28 0.25 0.23 0.21 0.22 0.18 0.14 0.11 0.09
0.53 0.70 0.74 0.60 0.37 0.16 0.07 0.03 0.02 0.03 0.03 0.03 0.04 0.08 0.10 0.11 0.13 0.13 0.15 0.18 0.23 0.29 0.31 0.44 0.52 0.54 0.54 0.53 0.51 0.50 0.48 0.47 0.47 0.43 0.43 0.49 0.53 0.49 0.39 0.32 0.27 0.21 0.20 0.18 0.16 0.13 0.12 0.10 0.08
0.79 0.91 0.76 0.58 0.34 0.14 0.07 0.05 0.05 0.05 0.05 0.05 0.06 0.11 0.15 0.16 0.17 0.23 0.29 0.30 0.33 0.37 0.40 0.52 0.65 0.69 0.66 0.64 0.59 0.53 0.52 0.51 0.51 0.46 0.45 0.50 0.56 0.57 0.46 0.34 0.26 0.20 0.17 0.16 0.13 0.11 0.10 0.10 0.09
1.04 1.04 0.80 0.52 0.28 0.14 0.07 0.07 0.07 0.07 0.07 0.09 0.11 0.16 0.24 0.23 0.26 0.31 0.42 0.43 0.45 0.48 0.53 0.64 0.78 0.82 0.79 0.76 0.70 0.64 0.61 0.57 0.56 0.55 0.58 0.55 0.56 0.58 0.49 0.34 0.28 0.25 0.19 0.17 0.14 0.12 0.11 0.10 0.09
1.03 1.03 0.77 0.39 0.23 0.17 0.10 0.09 0.10 0.09 0.10 0.11 0.15 0.24 0.34 0.38 0.46 0.46 0.54 0.61 0.64 0.67 0.72 0.80 0.85 0.90 0.93 0.84 0.74 0.71 0.67 0.66 0.62 0.61 0.64 0.59 0.56 0.53 0.45 0.31 0.27 0.27 0.25 0.20 0.17 0.16 0.14 0.12 0.11
1.02 1.10 0.76 0.39 0.23 0.21 0.15 0.13 0.13 0.14 0.13 0.12 0.20 0.30 0.38 0.44 0.59 0.70 0.76 0.81 0.86 0.87 0.87 0.87 0.88 0.92 0.99 0.97 0.82 0.70 0.64 0.63 0.65 0.65 0.62 0.51 0.47 0.49 0.44 0.28 0.25 0.27 0.26 0.22 0.19 0.17 0.16 0.14 0.11
1.04 1.11 0.73 0.40 0.28 0.23 0.21 0.23 0.19 0.16 0.20 0.21 0.27 0.32 0.39 0.53 0.75 0.95 1.04 1.05 1.11 1.15 1.08 0.99 0.96 0.94 0.98 1.03 0.92 0.81 0.70 0.66 0.63 0.63 0.57 0.51 0.51 0.48 0.42 0.27 0.18 0.22 0.23 0.21 0.20 0.20 0.18 0.15 0.12
1.05 0.91 0.54 0.35 0.31 0.29 0.26 0.28 0.27 0.27 0.30 0.35 0.41 0.46 0.57 0.77 1.07 1.19 1.20 1.19 1.23 1.29 1.23 1.13 1.04 1.01 1.05 1.06 1.06 1.01 0.86 0.74 0.65 0.59 0.61 0.57 0.53 0.51 0.44 0.35 0.21 0.20 0.21 0.21 0.21 0.21 0.22 0.18 0.13
0.75 0.65 0.48 0.38 0.33 0.33 0.33 0.31 0.32 0.35 0.38 0.37 0.43 0.56 0.79 1.05 1.35 1.42 1.47 1.48 1.44 1.46 1.42 1.31 1.18 1.14 1.11 1.07 1.05 1.07 0.93 0.83 0.76 0.69 0.66 0.65 0.61 0.55 0.55 0.46 0.35 0.29 0.22 0.22 0.21 0.22 0.19 0.16 0.15
0.55 0.45 0.44 0.43 0.36 0.36 0.38 0.39 0.39 0.36 0.36 0.36 0.43 0.57 0.83 1.13 1.34 1.45 1.57 1.63 1.69 1.70 1.69 1.51 1.38 1.29 1.23 1.14 1.02 0.97 0.93 0.85 0.76 0.69 0.72 0.72 0.67 0.57 0.52 0.49 0.39 0.33 0.26 0.24 0.23 0.21 0.18 0.15 0.15
0.45 0.37 0.37 0.44 0.44 0.39 0.37 0.39 0.44 0.36 0.35 0.39 0.46 0.65 0.88 1.19 1.43 1.61 1.76 1.78 1.89 1.96 1.95 1.86 1.60 1.41 1.30 1.24 1.15 0.99 0.86 0.76 0.76 0.74 0.69 0.65 0.60 0.53 0.50 0.50 0.47 0.40 0.31 0.26 0.25 0.24 0.21 0.18 0.16
0.36 0.35 0.41 0.47 0.52 0.43 0.41 0.42 0.45 0.39 0.36 0.45 0.54 0.70 0.86 1.19 1.55 1.74 1.93 2.02 1.96 2.12 2.22 2.22 1.92 1.60 1.37 1.29 1.23 1.10 0.91 0.79 0.76 0.76 0.71 0.67 0.60 0.53 0.53 0.47 0.46 0.43 0.40 0.35 0.30 0.27 0.29 0.26 0.23
0.39 0.48 0.52 0.53 0.56 0.47 0.49 0.57 0.48 0.41 0.37 0.44 0.52 0.66 0.83 1.13 1.49 1.74 1.90 2.02 2.11 2.21 2.38 2.44 2.29 1.97 1.56 1.36 1.27 1.19 1.06 0.93 0.83 0.75 0.72 0.71 0.68 0.62 0.60 0.55 0.51 0.47 0.45 0.44 0.41 0.38 0.38 0.34 0.30
0.62 0.75 0.71 0.50 0.54 0.52 0.59 0.64 0.44 0.40 0.40 0.41 0.47 0.61 0.77 0.97 1.30 1.58 1.86 1.99 2.12 2.27 2.38 2.46 2.43 2.27 1.89 1.50 1.36 1.26 1.17 1.07 0.95 0.88 0.85 0.79 0.75 0.72 0.72 0.65 0.56 0.52 0.55 0.53 0.46 0.42 0.41 0.35 0.31
0.85 0.71 0.57 0.43 0.43 0.53 0.52 0.55 0.45 0.39 0.40 0.38 0.40 0.51 0.73 0.89 1.09 1.33 1.65 1.89 1.96 2.15 2.32 2.54 2.48 2.36 2.16 1.86 1.61 1.47 1.33 1.24 1.12 0.97 0.89 0.91 0.89 0.86 0.84 0.71 0.61 0.57 0.58 0.56 0.56 0.50 0.45 0.39 0.33
0.63 0.40 0.37 0.39 0.40 0.45 0.41 0.35 0.38 0.41 0.42 0.39 0.41 0.47 0.62 0.81 0.88 1.06 1.35 1.71 1.82 1.99 2.21 2.39 2.63 2.57 2.53 2.43 2.11 1.78 1.59 1.39 1.27 1.11 0.98 0.95 0.95 0.95 0.95 0.86 0.75 0.72 0.65 0.58 0.55 0.55 0.55 0.51 0.46
0.49 0.39 0.32 0.28 0.32 0.40 0.36 0.30 0.33 0.34 0.40 0.39 0.40 0.44 0.49 0.63 0.74 0.92 1.18 1.51 1.72 1.83 2.04 2.16 2.37 2.55 2.59 2.49 2.18 1.83 1.60 1.53 1.48 1.34 1.20 1.12 1.06 1.02 1.01 0.99 0.91 0.83 0.74 0.66 0.62 0.61 0.60 0.59 0.62
0.62 0.55 0.39 0.28 0.25 0.35 0.36 0.32 0.31 0.33 0.38 0.37 0.38 0.39 0.43 0.50 0.58 0.73 1.03 1.23 1.42 1.60 1.74 1.96 2.04 2.29 2.35 2.28 2.23 2.06 1.95 1.84 1.73 1.63 1.43 1.30 1.25 1.15 1.06 1.01 0.99 0.92 0.85 0.81 0.81 0.78 0.73 0.68 0.70
0.66 0.55 0.45 0.38 0.33 0.38 0.43 0.39 0.31 0.31 0.32 0.29 0.29 0.30 0.37 0.43 0.47 0.60 0.82 1.03 1.14 1.33 1.59 1.70 1.77 2.00 2.22 2.30 2.43 2.51 2.45 2.14 1.87 1.70 1.61 1.49 1.42 1.33 1.20 1.09 1.08 1.06 0.96 0.88 0.91 0.94 0.93 0.93 0.92
0.67 0.40 0.44 0.48 0.58 0.55 0.41 0.51 0.35 0.27 0.26 0.26 0.28 0.26 0.30 0.37 0.42 0.48 0.57 0.75 0.88 1.01 1.33 1.65 1.78 1.91 2.11 2.38 2.38 2.32 2.20 1.98 1.72 1.70 1.75 1.71 1.61 1.51 1.36 1.27 1.20 1.18 1.14 1.06 1.07 1.09 1.13 1.17 1.15
0.60 0.41 0.48 0.57 0.66 0.62 0.39 0.40 0.34 0.22 0.23 0.25 0.28 0.27 0.33 0.43 0.46 0.45 0.48 0.60 0.73 0.84 1.07 1.36 1.62 1.85 2.05 2.18 2.23 2.28 2.13 1.96 1.90 1.83 1.79 1.70 1.59 1.54 1.46 1.40 1.37 1.33 1.31 1.30 1.33 1.31 1.29 1.28 1.26
0.67 0.67 0.73 0.77 0.94 0.89 0.37 0.34 0.32 0.24 0.27 0.28 0.28 0.30 0.36 0.43 0.48 0.45 0.45 0.54 0.67 0.73 0.87 1.08 1.33 1.51 1.72 1.93 2.03 2.09 2.08 2.08 2.02 1.84 1.75 1.75 1.72 1.64 1.54 1.52 1.52 1.52 1.49 1.46 1.44 1.45 1.48 1.46 1.41
0.97 1.31 1.69 1.59 1.31 0.69 0.24 0.28 0.27 0.22 0.30 0.34 0.33 0.35 0.37 0.38 0.40 0.40 0.43 0.50 0.60 0.67 0.77 0.87 0.99 1.12 1.29 1.48 1.64 1.74 1.85 1.96 1.89 1.78 1.64 1.62 1.61 1.56 1.51 1.48 1.52 1.58 1.56 1.56 1.58 1.58 1.53 1.56 1.57
0.95 1.12 1.33 1.09 0.66 0.34 0.21 0.23 0.23 0.23 0.32 0.37 0.36 0.35 0.34 0.38 0.40 0.38 0.38 0.43 0.52 0.57 0.65 0.73 0.80 0.88 1.02 1.15 1.28 1.44 1.59 1.77 1.76 1.73 1.58 1.46 1.42 1.42 1.49 1.43 1.37 1.40 1.47 1.51 1.52 1.52 1.49 1.49 1.47
0.87 0.84 0.74 0.92 0.60 0.34 0.22 0.16 0.14 0.17 0.23 0.30 0.32 0.30 0.29 0.38 0.40 0.38 0.37 0.38 0.46 0.50 0.54 0.63 0.75 0.80 0.88 1.00 1.12 1.24 1.34 1.45 1.52 1.58 1.60 1.46 1.38 1.38 1.39 1.34 1.27 1.20 1.21 1.29 1.38 1.39 1.38 1.39 1.39
0.71 0.67 0.84 1.18 0.93 0.50 0.21 0.12 0.17 0.19 0.20 0.28 0.31 0.33 0.36 0.40 0.40 0.37 0.38 0.42 0.46 0.47 0.48 0.56 0.71 0.75 0.77 0.84 0.93 1.02 1.12 1.27 1.36 1.39 1.40 1.36 1.33 1.34 1.32 1.25 1.17 1.11 1.07 1.07 1.14 1.17 1.16 1.20 1.20
0.65 0.80 0.93 0.94 0.71 0.61 0.38 0.24 0.23 0.24 0.21 0.25 0.30 0.33 0.37 0.40 0.41 0.40 0.44 0.50 0.53 0.48 0.50 0.56 0.63 0.73 0.79 0.79 0.84 0.88 0.89 0.97 1.12 1.23 1.25 1.26 1.24 1.23 1.22 1.18 1.14 1.08 1.02 0.97 0.96 0.95 0.98 1.05 1.06
0.51 0.51 0.69 1.00 0.73 0.52 0.46 0.35 0.24 0.24 0.22 0.23 0.28 0.31 0.33 0.35 0.37 0.42 0.49 0.52 0.52 0.54 0.57 0.60 0.62 0.68 0.78 0.80 0.80 0.84 0.86 0.86 0.95 1.04 1.14 1.21 1.28 1.21 1.18 1.15 1.10 1.05 1.00 0.96 0.94 0.89 0.89 0.93 0.96